Wetterdaten: Woche 23.02.09 - 01.03.09 (KW9)
Datum Zeit Temp. Innen Temp. Aussen Feuchte Inne Feuchte Auss Luftdruck Regen ab 0,1 Wind
23.02.2009 00:00 16,3 C 5,6 C 47 % 86 % 1020,5 hPa 0,0 l/m 2,8 km/h (1 Bft)
23.02.2009 01:00 16,2 C 5,5 C 46 % 84 % 1020,0 hPa 0,0 l/m 2,1 km/h (1 Bft)
23.02.2009 02:00 16,1 C 5,4 C 46 % 83 % 1019,5 hPa 0,0 l/m 2,1 km/h (1 Bft)
23.02.2009 03:00 16,0 C 5,3 C 46 % 83 % 1019,5 hPa 0,0 l/m 5,1 km/h (1 Bft)
23.02.2009 04:00 16,3 C 5,2 C 46 % 84 % 1019,0 hPa 0,0 l/m 2,1 km/h (1 Bft)
23.02.2009 05:00 16,3 C 5,1 C 46 % 84 % 1018,5 hPa 0,0 l/m 3,0 km/h (1 Bft)
23.02.2009 06:00 16,4 C 5,0 C 46 % 86 % 1018,5 hPa 0,0 l/m 2,5 km/h (1 Bft)
23.02.2009 07:00 16,4 C 5,2 C 46 % 85 % 1018,1 hPa 0,0 l/m 2,6 km/h (1 Bft)
23.02.2009 08:00 16,4 C 5,5 C 46 % 84 % 1018,5 hPa 0,0 l/m 3,8 km/h (1 Bft)
23.02.2009 09:00 16,4 C 5,8 C 46 % 85 % 1018,5 hPa 0,0 l/m 6,9 km/h (2 Bft)
23.02.2009 10:00 16,5 C 6,3 C 46 % 85 % 1018,5 hPa 0,5 l/m 4,8 km/h (1 Bft)
23.02.2009 11:00 16,5 C 6,3 C 46 % 87 % 1018,5 hPa 0,0 l/m 4,4 km/h (1 Bft)
23.02.2009 12:00 16,6 C 6,3 C 46 % 87 % 1018,5 hPa 0,0 l/m 2,1 km/h (1 Bft)
23.02.2009 13:00 16,6 C 6,8 C 47 % 85 % 1018,5 hPa 0,0 l/m 3,1 km/h (1 Bft)
23.02.2009 14:00 16,7 C 6,7 C 47 % 84 % 1017,7 hPa 0,0 l/m 1,5 km/h (1 Bft)
23.02.2009 15:00 16,7 C 7,1 C 46 % 81 % 1017,5 hPa 0,0 l/m 2,4 km/h (1 Bft)
23.02.2009 16:00 16,8 C 7,3 C 46 % 77 % 1017,6 hPa 0,0 l/m 2,9 km/h (1 Bft)
23.02.2009 17:00 16,8 C 7,0 C 46 % 75 % 1018,5 hPa 0,0 l/m 0,1 km/h (0 Bft)
23.02.2009 18:00 16,8 C 6,3 C 45 % 74 % 1018,6 hPa 0,0 l/m 0,3 km/h (0 Bft)
23.02.2009 19:00 16,8 C 6,0 C 44 % 72 % 1019,5 hPa 0,0 l/m 1,0 km/h (0 Bft)
23.02.2009 20:00 16,8 C 5,7 C 44 % 73 % 1020,0 hPa 0,0 l/m 0,2 km/h (0 Bft)
23.02.2009 21:00 16,8 C 5,5 C 44 % 74 % 1020,5 hPa 0,0 l/m 0,4 km/h (0 Bft)
23.02.2009 22:00 16,8 C 5,2 C 44 % 77 % 1020,5 hPa 0,0 l/m 1,4 km/h (1 Bft)
23.02.2009 23:00 16,7 C 5,0 C 44 % 78 % 1020,5 hPa 0,0 l/m 0,3 km/h (0 Bft)
24.02.2009 00:00 16,6 C 4,9 C 44 % 79 % 1020,9 hPa 0,0 l/m 0,4 km/h (0 Bft)
24.02.2009 01:00 16,7 C 4,6 C 43 % 78 % 1021,5 hPa 0,0 l/m 0,1 km/h (0 Bft)
24.02.2009 02:00 16,7 C 4,4 C 43 % 80 % 1021,5 hPa 0,0 l/m 0,0 km/h (0 Bft)
24.02.2009 03:00 16,6 C 4,3 C 43 % 80 % 1021,5 hPa 0,0 l/m 0,0 km/h (0 Bft)
24.02.2009 04:00 16,5 C 4,2 C 43 % 81 % 1022,3 hPa 0,0 l/m 0,0 km/h (0 Bft)
24.02.2009 05:00 16,4 C 4,2 C 43 % 81 % 1022,5 hPa 0,0 l/m 0,0 km/h (0 Bft)
24.02.2009 06:00 16,5 C 4,2 C 43 % 82 % 1023,3 hPa 0,0 l/m 0,0 km/h (0 Bft)
24.02.2009 07:00 16,6 C 4,2 C 43 % 81 % 1024,0 hPa 0,0 l/m 0,0 km/h (0 Bft)
24.02.2009 08:00 16,6 C 4,2 C 43 % 82 % 1024,6 hPa 0,0 l/m 0,0 km/h (0 Bft)
24.02.2009 09:00 16,5 C 4,4 C 43 % 81 % 1025,5 hPa 0,0 l/m 0,0 km/h (0 Bft)
24.02.2009 10:00 16,4 C 4,8 C 43 % 80 % 1025,5 hPa 0,0 l/m 0,1 km/h (0 Bft)
24.02.2009 11:00 16,4 C 5,2 C 43 % 79 % 1026,4 hPa 0,0 l/m 0,3 km/h (0 Bft)
24.02.2009 12:00 16,4 C 5,6 C 43 % 76 % 1026,5 hPa 0,0 l/m 0,5 km/h (0 Bft)
24.02.2009 13:00 16,4 C 5,8 C 43 % 75 % 1026,5 hPa 0,0 l/m 0,1 km/h (0 Bft)
24.02.2009 14:00 16,4 C 5,9 C 43 % 75 % 1026,5 hPa 0,0 l/m 0,0 km/h (0 Bft)
24.02.2009 15:00 16,3 C 5,9 C 42 % 75 % 1026,5 hPa 0,0 l/m 0,0 km/h (0 Bft)
24.02.2009 16:00 16,3 C 5,8 C 42 % 75 % 1027,3 hPa 0,0 l/m 0,0 km/h (0 Bft)
24.02.2009 17:00 16,3 C 5,5 C 43 % 76 % 1027,5 hPa 0,0 l/m 0,0 km/h (0 Bft)
24.02.2009 18:00 16,4 C 5,3 C 43 % 77 % 1027,6 hPa 0,0 l/m 0,0 km/h (0 Bft)
24.02.2009 19:00 16,6 C 5,0 C 43 % 77 % 1028,5 hPa 0,0 l/m 0,0 km/h (0 Bft)
24.02.2009 20:00 16,6 C 4,8 C 43 % 77 % 1028,5 hPa 0,0 l/m 0,0 km/h (0 Bft)
24.02.2009 21:00 16,6 C 4,7 C 43 % 77 % 1028,5 hPa 0,0 l/m 0,0 km/h (0 Bft)
24.02.2009 22:00 16,6 C 4,5 C 43 % 78 % 1028,6 hPa 0,0 l/m 0,0 km/h (0 Bft)
24.02.2009 23:00 16,5 C 4,3 C 43 % 78 % 1029,6 hPa 0,0 l/m 0,0 km/h (0 Bft)
25.02.2009 00:00 16,4 C 4,0 C 43 % 79 % 1029,6 hPa 0,0 l/m 0,0 km/h (0 Bft)
25.02.2009 01:00 16,4 C 3,9 C 43 % 80 % 1029,6 hPa 0,0 l/m 0,0 km/h (0 Bft)
25.02.2009 02:00 16,3 C 3,9 C 43 % 80 % 1029,6 hPa 0,0 l/m 0,0 km/h (0 Bft)
25.02.2009 03:00 16,4 C 3,9 C 42 % 80 % 1028,9 hPa 0,0 l/m 0,0 km/h (0 Bft)
25.02.2009 04:00 16,4 C 3,8 C 42 % 80 % 1028,6 hPa 0,0 l/m 0,0 km/h (0 Bft)
25.02.2009 05:00 16,3 C 3,7 C 42 % 79 % 1028,6 hPa 0,0 l/m 0,0 km/h (0 Bft)
25.02.2009 06:00 16,3 C 3,1 C 42 % 80 % 1028,6 hPa 0,0 l/m 0,0 km/h (0 Bft)
25.02.2009 07:00 16,4 C 2,8 C 42 % 80 % 1028,6 hPa 0,0 l/m 0,0 km/h (0 Bft)
25.02.2009 08:00 16,4 C 2,9 C 42 % 81 % 1029,0 hPa 0,0 l/m 0,0 km/h (0 Bft)
25.02.2009 09:00 16,3 C 3,6 C 42 % 81 % 1029,6 hPa 0,0 l/m 0,2 km/h (0 Bft)
25.02.2009 10:00 16,2 C 4,3 C 42 % 79 % 1028,7 hPa 0,0 l/m 0,8 km/h (0 Bft)
25.02.2009 11:00 16,2 C 5,2 C 45 % 76 % 1028,5 hPa 0,0 l/m 3,0 km/h (1 Bft)
25.02.2009 12:00 16,2 C 6,3 C 46 % 74 % 1028,5 hPa 0,0 l/m 4,5 km/h (1 Bft)
25.02.2009 13:00 16,2 C 7,2 C 46 % 71 % 1028,2 hPa 0,0 l/m 4,5 km/h (1 Bft)
25.02.2009 14:00 16,3 C 7,9 C 45 % 69 % 1027,5 hPa 0,0 l/m 3,8 km/h (1 Bft)
25.02.2009 15:00 16,3 C 7,9 C 45 % 69 % 1026,9 hPa 0,0 l/m 5,1 km/h (1 Bft)
25.02.2009 16:00 16,3 C 7,7 C 45 % 71 % 1026,5 hPa 0,0 l/m 4,1 km/h (1 Bft)
25.02.2009 17:00 16,3 C 7,3 C 45 % 73 % 1026,5 hPa 0,0 l/m 3,3 km/h (1 Bft)
25.02.2009 18:00 16,4 C 6,9 C 45 % 76 % 1026,5 hPa 0,0 l/m 2,3 km/h (1 Bft)
25.02.2009 19:00 16,6 C 6,5 C 45 % 79 % 1026,5 hPa 0,0 l/m 1,1 km/h (0 Bft)
25.02.2009 20:00 16,6 C 6,4 C 45 % 81 % 1026,2 hPa 0,0 l/m 4,3 km/h (1 Bft)
25.02.2009 21:00 16,6 C 6,1 C 45 % 84 % 1025,5 hPa 0,0 l/m 0,5 km/h (0 Bft)
25.02.2009 22:00 16,6 C 5,9 C 46 % 85 % 1025,4 hPa 0,0 l/m 1,2 km/h (1 Bft)
25.02.2009 23:00 16,6 C 5,8 C 46 % 86 % 1024,5 hPa 0,0 l/m 2,1 km/h (1 Bft)
26.02.2009 00:00 16,5 C 5,8 C 46 % 87 % 1024,0 hPa 0,0 l/m 3,3 km/h (1 Bft)
26.02.2009 01:00 16,4 C 5,9 C 46 % 87 % 1023,5 hPa 0,0 l/m 5,0 km/h (1 Bft)
26.02.2009 02:00 16,4 C 5,8 C 46 % 87 % 1022,7 hPa 0,0 l/m 3,2 km/h (1 Bft)
26.02.2009 03:00 16,4 C 5,9 C 47 % 88 % 1022,5 hPa 0,0 l/m 2,5 km/h (1 Bft)
26.02.2009 04:00 16,3 C 6,1 C 47 % 87 % 1021,5 hPa 0,0 l/m 3,8 km/h (1 Bft)
26.02.2009 05:00 16,3 C 6,1 C 47 % 88 % 1021,5 hPa 0,5 l/m 3,0 km/h (1 Bft)
26.02.2009 06:00 16,4 C 6,2 C 47 % 88 % 1020,7 hPa 0,0 l/m 2,0 km/h (1 Bft)
26.02.2009 07:00 16,6 C 6,3 C 47 % 88 % 1020,5 hPa 0,0 l/m 3,0 km/h (1 Bft)
26.02.2009 08:00 16,5 C 6,5 C 47 % 87 % 1020,5 hPa 0,0 l/m 1,7 km/h (1 Bft)
26.02.2009 09:00 16,5 C 6,9 C 47 % 86 % 1020,5 hPa 0,0 l/m 4,2 km/h (1 Bft)
26.02.2009 10:00 16,4 C 7,4 C 47 % 84 % 1020,5 hPa 0,0 l/m 5,2 km/h (1 Bft)
26.02.2009 11:00 16,5 C 7,9 C 47 % 80 % 1020,5 hPa 0,0 l/m 6,2 km/h (2 Bft)
26.02.2009 12:00 16,6 C 8,4 C 47 % 74 % 1020,4 hPa 0,0 l/m 5,3 km/h (1 Bft)
26.02.2009 13:00 16,6 C 8,8 C 47 % 71 % 1020,4 hPa 0,0 l/m 5,5 km/h (1 Bft)
26.02.2009 14:00 16,6 C 8,8 C 47 % 71 % 1019,9 hPa 0,0 l/m 8,6 km/h (2 Bft)
26.02.2009 15:00 16,6 C 8,8 C 46 % 71 % 1019,3 hPa 0,0 l/m 5,9 km/h (2 Bft)
26.02.2009 16:00 16,6 C 8,6 C 46 % 71 % 1018,4 hPa 0,0 l/m 3,7 km/h (1 Bft)
26.02.2009 17:00 16,6 C 8,3 C 46 % 70 % 1018,4 hPa 0,0 l/m 6,1 km/h (2 Bft)
26.02.2009 18:00 16,7 C 8,0 C 46 % 71 % 1018,4 hPa 0,0 l/m 3,4 km/h (1 Bft)
26.02.2009 19:00 16,8 C 7,7 C 45 % 73 % 1018,5 hPa 0,0 l/m 3,8 km/h (1 Bft)
26.02.2009 20:00 16,8 C 7,0 C 45 % 76 % 1018,5 hPa 0,0 l/m 3,6 km/h (1 Bft)
26.02.2009 21:00 16,9 C 6,9 C 45 % 78 % 1017,7 hPa 0,0 l/m 3,2 km/h (1 Bft)
26.02.2009 22:00 16,8 C 6,5 C 46 % 81 % 1017,5 hPa 0,0 l/m 3,3 km/h (1 Bft)
26.02.2009 23:00 16,7 C 6,5 C 46 % 82 % 1017,5 hPa 0,0 l/m 4,6 km/h (1 Bft)
27.02.2009 00:00 16,6 C 6,6 C 46 % 81 % 1017,5 hPa 0,0 l/m 5,3 km/h (1 Bft)
27.02.2009 01:00 16,6 C 6,6 C 46 % 82 % 1017,5 hPa 0,0 l/m 2,7 km/h (1 Bft)
27.02.2009 02:00 16,6 C 6,6 C 46 % 82 % 1017,5 hPa 0,0 l/m 2,2 km/h (1 Bft)
27.02.2009 03:00 16,6 C 6,6 C 46 % 82 % 1017,4 hPa 0,0 l/m 2,7 km/h (1 Bft)
27.02.2009 04:00 16,5 C 6,8 C 46 % 80 % 1017,4 hPa 0,0 l/m 4,4 km/h (1 Bft)
27.02.2009 05:00 16,6 C 6,9 C 46 % 80 % 1017,5 hPa 0,0 l/m 1,8 km/h (1 Bft)
27.02.2009 06:00 16,7 C 6,8 C 46 % 80 % 1017,5 hPa 0,0 l/m 1,9 km/h (1 Bft)
27.02.2009 07:00 16,8 C 6,6 C 46 % 80 % 1017,6 hPa 0,0 l/m 1,1 km/h (1 Bft)
27.02.2009 08:00 16,9 C 6,4 C 49 % 81 % 1018,5 hPa 0,0 l/m 3,6 km/h (1 Bft)
27.02.2009 09:00 16,9 C 6,5 C 51 % 81 % 1018,4 hPa 0,0 l/m 2,0 km/h (1 Bft)
27.02.2009 10:00 16,8 C 6,5 C 49 % 83 % 1018,5 hPa 0,0 l/m 3,1 km/h (1 Bft)
27.02.2009 11:00 16,7 C 6,9 C 49 % 84 % 1018,5 hPa 0,0 l/m 3,3 km/h (1 Bft)
27.02.2009 12:00 16,7 C 7,3 C 49 % 83 % 1018,5 hPa 0,0 l/m 3,4 km/h (1 Bft)
27.02.2009 13:00 16,6 C 7,3 C 49 % 86 % 1018,1 hPa 0,0 l/m 3,3 km/h (1 Bft)
27.02.2009 14:00 16,6 C 7,5 C 49 % 88 % 1017,4 hPa 0,0 l/m 3,7 km/h (1 Bft)
27.02.2009 15:00 16,7 C 7,8 C 49 % 88 % 1017,4 hPa 0,0 l/m 3,7 km/h (1 Bft)
27.02.2009 16:00 16,6 C 7,9 C 50 % 88 % 1017,4 hPa 0,0 l/m 3,3 km/h (1 Bft)
27.02.2009 17:00 16,7 C 7,9 C 50 % 89 % 1017,4 hPa 0,0 l/m 2,5 km/h (1 Bft)
27.02.2009 18:00 17,2 C 7,9 C 51 % 89 % 1017,4 hPa 0,0 l/m 1,6 km/h (1 Bft)
27.02.2009 19:00 17,3 C 7,8 C 50 % 90 % 1017,9 hPa 0,5 l/m 0,6 km/h (0 Bft)
27.02.2009 20:00 17,4 C 7,8 C 51 % 90 % 1018,4 hPa 0,0 l/m 0,0 km/h (0 Bft)
27.02.2009 21:00 17,7 C 7,9 C 50 % 90 % 1018,2 hPa 0,0 l/m 1,1 km/h (0 Bft)
27.02.2009 22:00 17,8 C 7,9 C 50 % 90 % 1017,7 hPa 0,0 l/m 0,8 km/h (0 Bft)
27.02.2009 23:00 17,6 C 7,9 C 50 % 91 % 1017,7 hPa 0,5 l/m 1,0 km/h (0 Bft)
28.02.2009 00:00 17,3 C 7,9 C 51 % 91 % 1017,4 hPa 0,0 l/m 0,5 km/h (0 Bft)
28.02.2009 01:00 17,2 C 8,0 C 51 % 91 % 1017,4 hPa 0,0 l/m 0,3 km/h (0 Bft)
28.02.2009 02:00 17,1 C 7,9 C 51 % 91 % 1017,4 hPa 0,0 l/m 1,2 km/h (1 Bft)
28.02.2009 03:00 17,0 C 7,9 C 51 % 91 % 1017,1 hPa 0,0 l/m 0,9 km/h (0 Bft)
28.02.2009 04:00 17,0 C 7,8 C 51 % 91 % 1016,4 hPa 0,0 l/m 0,9 km/h (0 Bft)
28.02.2009 05:00 17,4 C 7,6 C 52 % 90 % 1016,4 hPa 0,0 l/m 0,3 km/h (0 Bft)
28.02.2009 06:00 17,5 C 7,6 C 51 % 90 % 1016,4 hPa 0,0 l/m 0,3 km/h (0 Bft)
28.02.2009 07:00 17,4 C 7,5 C 51 % 90 % 1016,4 hPa 0,0 l/m 0,3 km/h (0 Bft)
28.02.2009 08:00 17,3 C 7,5 C 51 % 89 % 1016,4 hPa 0,0 l/m 0,0 km/h (0 Bft)
28.02.2009 09:00 17,3 C 7,7 C 51 % 89 % 1016,1 hPa 0,0 l/m 0,3 km/h (0 Bft)
28.02.2009 10:00 17,3 C 8,1 C 51 % 88 % 1015,9 hPa 0,0 l/m 1,2 km/h (1 Bft)
28.02.2009 11:00 17,4 C 8,8 C 51 % 87 % 1015,4 hPa 0,0 l/m 2,1 km/h (1 Bft)
28.02.2009 12:00 17,4 C 9,8 C 52 % 84 % 1015,2 hPa 0,0 l/m 1,3 km/h (1 Bft)
28.02.2009 13:00 17,5 C 10,2 C 52 % 80 % 1014,4 hPa 0,0 l/m 2,3 km/h (1 Bft)
28.02.2009 14:00 17,6 C 10,4 C 52 % 78 % 1014,4 hPa 0,0 l/m 0,5 km/h (0 Bft)
28.02.2009 15:00 17,8 C 10,3 C 55 % 78 % 1014,3 hPa 0,0 l/m 0,7 km/h (0 Bft)
28.02.2009 16:00 17,8 C 10,2 C 54 % 77 % 1013,4 hPa 0,0 l/m 0,0 km/h (0 Bft)
28.02.2009 17:00 17,8 C 9,9 C 54 % 76 % 1013,4 hPa 0,0 l/m 0,0 km/h (0 Bft)
28.02.2009 18:00 17,8 C 8,9 C 53 % 77 % 1013,4 hPa 0,0 l/m 0,0 km/h (0 Bft)
28.02.2009 19:00 17,8 C 7,2 C 52 % 80 % 1013,1 hPa 0,0 l/m 0,0 km/h (0 Bft)
28.02.2009 20:00 17,8 C 5,7 C 52 % 81 % 1012,7 hPa 0,0 l/m 0,0 km/h (0 Bft)
28.02.2009 21:00 17,7 C 4,4 C 52 % 83 % 1012,6 hPa 0,0 l/m 0,0 km/h (0 Bft)
28.02.2009 22:00 17,7 C 3,7 C 51 % 84 % 1012,5 hPa 0,0 l/m 0,0 km/h (0 Bft)
28.02.2009 23:00 17,6 C 4,1 C 51 % 85 % 1012,5 hPa 0,0 l/m 0,0 km/h (0 Bft)
01.03.2009 00:00 17,6 C 4,2 C 51 % 85 % 1011,8 hPa 0,0 l/m 0,0 km/h (0 Bft)
01.03.2009 01:00 17,4 C 3,8 C 50 % 86 % 1011,5 hPa 0,0 l/m 0,0 km/h (0 Bft)
01.03.2009 02:00 17,3 C 3,0 C 49 % 87 % 1011,1 hPa 0,0 l/m 0,0 km/h (0 Bft)
01.03.2009 03:00 17,1 C 2,3 C 49 % 87 % 1010,5 hPa 0,0 l/m 0,0 km/h (0 Bft)
01.03.2009 04:00 17,0 C 1,8 C 47 % 87 % 1010,5 hPa 0,0 l/m 0,0 km/h (0 Bft)
01.03.2009 05:00 16,9 C 1,3 C 46 % 87 % 1009,6 hPa 0,0 l/m 0,0 km/h (0 Bft)
01.03.2009 06:00 16,9 C 1,1 C 46 % 87 % 1009,4 hPa 0,0 l/m 0,0 km/h (0 Bft)
01.03.2009 07:00 17,0 C 0,9 C 47 % 87 % 1009,1 hPa 0,0 l/m 0,0 km/h (0 Bft)
01.03.2009 08:00 17,0 C 1,7 C 47 % 88 % 1009,0 hPa 0,0 l/m 0,0 km/h (0 Bft)
01.03.2009 09:00 17,0 C 4,7 C 47 % 88 % 1008,5 hPa 0,0 l/m 0,0 km/h (0 Bft)
01.03.2009 10:00 17,1 C 7,2 C 49 % 90 % 1008,4 hPa 0,0 l/m 0,1 km/h (0 Bft)
01.03.2009 11:00 17,0 C 8,5 C 49 % 90 % 1008,4 hPa 0,0 l/m 0,0 km/h (0 Bft)
01.03.2009 12:00 17,0 C 9,8 C 50 % 86 % 1008,4 hPa 0,0 l/m 0,0 km/h (0 Bft)
01.03.2009 13:00 16,9 C 11,5 C 50 % 80 % 1007,5 hPa 0,0 l/m 0,9 km/h (0 Bft)
01.03.2009 14:00 17,0 C 12,8 C 51 % 75 % 1007,0 hPa 0,0 l/m 1,6 km/h (1 Bft)
01.03.2009 15:00 17,4 C 13,1 C 50 % 72 % 1006,3 hPa 0,0 l/m 0,0 km/h (0 Bft)
01.03.2009 16:00 17,6 C 12,8 C 50 % 72 % 1006,3 hPa 0,0 l/m 0,0 km/h (0 Bft)
01.03.2009 17:00 17,7 C 12,2 C 50 % 73 % 1006,3 hPa 0,0 l/m 0,0 km/h (0 Bft)
01.03.2009 18:00 17,7 C 10,9 C 50 % 76 % 1006,9 hPa 0,0 l/m 0,0 km/h (0 Bft)
01.03.2009 19:00 17,8 C 10,0 C 50 % 78 % 1007,4 hPa 0,0 l/m 0,0 km/h (0 Bft)
01.03.2009 20:00 17,8 C 10,5 C 50 % 78 % 1007,8 hPa 0,0 l/m 1,2 km/h (1 Bft)
01.03.2009 21:00 17,8 C 10,4 C 50 % 81 % 1008,4 hPa 0,5 l/m 0,8 km/h (0 Bft)
01.03.2009 22:00 18,1 C 9,9 C 51 % 83 % 1008,4 hPa 0,0 l/m 0,2 km/h (0 Bft)
01.03.2009 23:00 18,1 C 9,5 C 51 % 85 % 1008,4 hPa 0,0 l/m 0,2 km/h (0 Bft)
Min-Datum _ 23.02.09 01.03.09 24.02.09 25.02.09 01.03.09 - 23.02.09
_ Min-Zeit 02:28 07:00 14:54 14:46 14:44 - 00:02
Minimum _ 16,0 C 0,9 C 42 % 68 % 1006,3 hPa - 0,0 km/h (0 Bft)
Max-Datum _ 01.03.09 01.03.09 28.02.09 27.02.09 24.02.09 23.02.09 01.03.09
_ Max-Zeit 22:42 15:30 15:14 22:38 22:54 10:56 14:38
Maximum _ 18,3 C 13,2 C 55 % 91 % 1029,6 hPa 0,5 l/m 37,7 km/h
S-SO (5 Bft)
Durchschnitt _ 16,8 C 6,5 C 47 % 82 % 1019,1 hPa #2,6 l/m 1,7 km/h (1 Bft)
© 2012 W. Hausmann